Location: Vancouver
(49.2500°N, 123.1330°W)
Time: 05:31:37

A-11 Canister half - Visible Passes

Search period start: 10 October 2015 00:00
Search period end: 20 October 2015 00:00
Orbit: 1525 x 1685 km, 47.3° (Epoch: 08 October)

Date Brightness Start Highest point End Pass type
(mag) Time Alt. Az. Time Alt. Az. Time Alt. Az.
10 Oct 10.7 18:50:55 10° W 18:58:49 31° SW 19:06:43 10° SSE visible
15 Oct 11.8 19:12:49 10° WSW 19:14:24 10° SW 19:15:18 10° SW visible
16 Oct 11.8 18:50:09 10° WSW 18:52:57 11° SW 18:55:06 10° SW visible
